[[{"header":{"parameterUnit":"m.s-1","parameterCategory":1,"la1":30.2991,"la2":30.254,"lo1":-89.0895,"lo2":-89.0444,"dy":0.0017,"dx":0.0017,"nx":28,"ny":28,"refTime":"2024-08-30T21:00:00:Z","depth":0,"parameterNumber":2,"parameterNumberName":"U-component_of_WINDS"},"data":[0,0,0,0,0,0,0,0,0,0,0,0,0,0,0,0,0,0,0,0,0,0,0,0,0,0,0,0,0,0,0,0,0,0,0,0,0,0,0,0,0,0,0,0,0,0,0,0,0,0,0,0,0,0,0,0,0,0,-4.5629,-4.563,0,-4.5673,-4.5673,-4.5674,-4.5569,-4.5565,-4.5562,-4.5559,-4.56,-4.5604,-4.5609,0,0,0,0,0,0,0,0,0,0,0,0,0,-4.5451,-4.5455,-4.5629,-4.563,-4.563,-4.5673,-4.5673,-4.5674,-4.5569,-4.5565,-4.5561,-4.5557,-4.5599,-4.5604,-4.5609,0,0,0,0,0,0,0,0,0,0,0,0,0,-4.5515,-4.5456,-4.5629,-4.5583,-4.5579,-4.5673,-4.5673,-4.5674,-4.557,-4.5565,-4.556,-4.5555,-4.5597,-4.5603,-4.561,-4.5748,0,0,-4.5629,-4.5632,0,0,0,0,0,0,0,0,-4.5511,-4.5521,-4.5589,-4.5586,-4.5582,-4.561,-4.5626,-4.5699,-4.5571,-4.5574,-4.5559,-4.5553,-4.5607,-4.5613,-4.5632,-4.575,-4.5752,-4.563,-4.5633,-4.5636,-4.5638,0,0,0,0,0,0,0,-4.5507,-4.5519,-4.5646,-4.559,-4.5586,-4.5559,-4.5563,-4.5639,-4.5618,-4.5573,-4.5565,-4.5572,-4.5605,-4.5626,-4.5632,-4.5753,-4.5629,-4.5635,-4.5639,-4.5641,-4.5986,-4.5991,0,0,0,0,0,0,-4.5509,-4.5516,-4.5645,-4.5647,-4.5534,-4.5566,-4.557,-4.5606,-4.5617,-4.5614,-4.5576,-4.5567,-4.5618,-4.5625,-4.5633,-4.5794,-4.5636,-4.5642,-4.5646,-4.598,-4.5987,-4.5992,0,0,0,0,0,0,-4.5505,-4.5521,-4.5643,-4.558,-4.5593,-4.5575,-4.5616,-4.561,-4.5631,-4.5619,-4.5615,-4.5602,-4.5614,-4.5624,-4.572,-4.5794,-4.5645,-4.5651,-4.5974,-4.5982,-4.599,-4.6119,0,0,0,0,0,0,-4.5501,-4.5521,-4.5574,-4.5582,-4.5597,-4.5731,-4.5621,-4.5614,-4.5642,-4.5631,-4.5642,-4.5639,-4.5611,-4.5711,-4.5727,-4.58,-4.5655,-4.5967,-4.5978,-4.5987,-4.6108,-4.6131,-4.615,0,0,0,0,0,-4.5495,-4.5609,-4.5577,-4.5594,-4.5664,-4.5736,-4.5744,-4.571,-4.5649,-4.5701,-4.5694,-4.5639,-4.5785,-4.5722,-4.5738,-4.5815,-4.5962,-4.5975,-4.5986,-4.6099,-4.6126,-4.615,0,0,0,0,0,0,-4.5609,-4.5609,-4.5574,-4.5694,-4.5716,-4.5718,-4.5783,-4.574,-4.5779,-4.5766,-4.5721,-4.5724,-4.5828,-4.5831,-4.5762,-4.5949,-4.5863,-4.5879,-4.5943,-4.5969,-4.5989,-4.5985,-4.5661,0,0,0,0,0,-4.5649,-4.5708,-4.5704,-4.5811,-4.5823,-4.5802,-4.5832,-4.5804,-4.5824,-4.5832,-4.5832,-4.5852,-4.5902,-4.5936,-4.5982,-4.6109,-4.6109,-4.617,-4.6191,-4.6208,-4.6221,-4.6287,-4.6313,-4.6032,-4.6032,-4.6032,0,0,-4.573,-4.5737,-4.5778,-4.5834,-4.5847,-4.5908,-4.581,-4.588,-4.5924,-4.5842,-4.5933,-4.5934,-4.5953,-4.6066,-4.6115,-4.6071,-4.6299,-4.6223,-4.6237,-4.6241,-4.6302,-4.6329,-4.6352,-4.604,-4.6039,-4.6037,0,0,-4.5909,-4.5922,-4.6011,-4.6027,-4.6049,-4.6034,-4.6055,-4.6064,-4.6061,-4.6152,-4.6091,-4.6143,-4.6231,-4.6247,-4.6267,-4.6453,-4.6403,-4.6469,-4.6577,-4.6642,-4.6664,-4.6683,-4.6748,-4.6771,-4.6483,-4.6484,-4.6484,0,-4.6007,-4.6098,-4.6062,-4.6135,-4.6161,-4.6091,-4.618,-4.6197,-4.6232,-4.6251,-4.6202,-4.631,-4.6319,-4.6433,-4.6478,-4.6497,-4.6519,-4.6467,-4.6664,-4.6683,-4.6701,-4.6761,-4.6786,-4.6491,-4.649,-4.649,-4.6489,0,-4.6217,-4.6281,-4.635,-4.6387,-4.6421,-4.6502,-4.6476,-4.6514,-4.6483,-4.6473,-4.6565,-4.6574,-4.6619,-4.6644,-4.6615,-4.6754,-4.6726,-4.6672,-4.6584,-4.6736,-4.6792,-4.6815,-4.6502,-4.65,-4.6497,-4.6495,0,0,-4.6467,-4.6484,-4.6509,-4.6525,-4.6544,-4.6592,-4.667,-4.6715,-4.6748,-4.6775,-4.6837,-4.6913,-4.6863,-4.6885,-4.6857,-4.6914,-4.7058,-4.6852,-4.6852,-4.6888,-4.721,-4.7249,-4.7276,-4.7027,-4.7031,-4.7034,-4.7207,0,-4.6643,-4.6776,-4.6746,-4.6877,-4.6934,-4.6869,-4.6936,-4.6955,-4.6948,-4.6994,-4.6986,-4.704,-4.6971,-4.6983,-4.7037,-4.703,-4.7122,-4.7017,-4.7082,-4.7084,-4.7076,-4.7306,-4.7348,-4.751,-4.7229,-4.7233,-4.7236,0,-4.6865,-4.6901,-4.7038,-4.7048,-4.7071,-4.7132,-4.717,-4.7217,-4.7236,-4.7226,-4.7252,-4.7212,-4.7287,-4.7201,-4.7302,-4.7231,-4.7256,-4.7256,-4.7262,-4.7264,-4.7168,-4.7312,-4.7562,-4.7585,-4.727,-4.7268,-4.7265,0,-4.7031,-4.7114,-4.7207,-4.7222,-4.7236,-4.728,-4.7288,-4.7302,-4.7331,-4.7364,-4.7382,-4.7424,-4.7447,-4.7479,-4.7451,-4.7391,-4.7556,-4.7468,-4.7549,-4.755,-4.7584,-4.7582,-4.7839,-4.7605,-4.7605,-4.7604,-4.7604,0,-4.7228,-4.7314,-4.7281,-4.7338,-4.7432,-4.7396,-4.7489,-4.7489,-4.7502,-4.7557,-4.7503,-4.7555,-4.7516,-4.7565,-4.7544,-4.7629,-4.7641,-4.7633,-4.7626,-4.7637,-4.7638,-4.7651,-4.7638,-4.7611,-4.7609,-4.7608,-4.7607,0,-4.7429,-4.7411,-4.7507,-4.7512,-4.7516,-4.7584,-4.7588,-4.764,-4.7629,-4.7699,-4.7713,-4.7696,-4.7749,-4.7726,-4.7782,-4.7768,-4.7878,-4.7857,-4.7871,-4.7865,-4.7946,-4.7938,-4.8218,-4.8252,-4.7999,-4.8002,-4.8004,0,-4.7555,-4.7619,-4.7632,-4.7665,-4.7677,-4.7731,-4.776,-4.7727,-4.776,-4.7786,-4.7835,-4.7884,-4.7922,-4.8011,-4.8002,-4.8045,-4.8023,-4.8118,-4.8029,-4.8037,-4.8021,-4.8017,-4.8022,-4.8135,-4.8138,-4.8141,-4.8143,0,-4.7779,-4.7767,-4.7812,-4.7855,-4.7891,-4.7923,-4.7949,-4.7979,-4.7947,-4.7986,-4.8041,-4.807,-4.8128,-4.8177,-4.8215,-4.8221,-4.8176,-4.8172,-4.8192,-4.8202,-4.8207,-4.8203,-4.7917,-4.8164,-4.8162,-4.8161,-4.816,-4.8159,-4.7945,-4.7998,-4.8016,-4.8067,-4.8084,-4.811,-4.8159,-4.8155,-4.82,-4.8245,-4.8223,-4.8286,-4.8303,-4.8349,-4.8361,-4.8409,-4.8371,-4.8402,-4.8409,-4.8416,-4.8426,-4.8202,-4.8416,-4.8416,-4.8415,-4.8414,-4.8414,0,-4.8164,-4.8172,-4.8221,-4.826,-4.83,-4.8257,-4.8283,-4.8319,-4.8376,-4.8396,-4.8435,-4.8497,-4.8545,-4.8541,-4.8584,-4.8623,-4.8603,-4.8635,-4.863,-4.8632,-4.8458,-4.8435,-4.865,-4.865,-4.865,-4.865,-4.865,-4.865,-4.8283,-4.8371,-4.8361,-4.8457,-4.8464,-4.8526,-4.8545,-4.8568,-4.8584,-4.8656,-4.8696,-4.8693,-4.8703,-4.8747,-4.8788,-4.8785,-4.8802,-4.8842,-4.8831,-4.8668,-4.8645,-4.8622,-4.86,-4.8846,-4.8847,-4.9,-4.9002,-4.9003]},{"header":{"parameterUnit":"m.s-1","parameterCategory":1,"la1":30.2991,"la2":30.254,"lo1":-89.0895,"lo2":-89.0444,"dy":0.0017,"dx":0.0017,"nx":28,"ny":28,"refTime":"2024-08-30T21:00:00:Z","depth":0,"parameterNumber":3,"parameterNumberName":"V-component_of_WINDS"},"data":[0,0,0,0,0,0,0,0,0,0,0,0,0,0,0,0,0,0,0,0,0,0,0,0,0,0,0,0,0,0,0,0,0,0,0,0,0,0,0,0,0,0,0,0,0,0,0,0,0,0,0,0,0,0,0,0,0,0,-0.099,-0.0989,0,-0.0962,-0.0961,-0.0961,-0.0983,-0.0984,-0.0985,-0.0986,-0.0957,-0.0956,-0.0954,0,0,0,0,0,0,0,0,0,0,0,0,0,-0.106,-0.1058,-0.099,-0.0989,-0.0989,-0.0962,-0.0961,-0.0961,-0.0983,-0.0984,-0.0985,-0.0986,-0.0958,-0.0956,-0.0954,0,0,0,0,0,0,0,0,0,0,0,0,0,-0.103,-0.1058,-0.099,-0.0997,-0.0997,-0.0962,-0.0961,-0.0961,-0.0983,-0.0984,-0.0986,-0.0987,-0.0958,-0.0956,-0.0954,-0.091,0,0,-0.0946,-0.0945,0,0,0,0,0,0,0,0,-0.1032,-0.1028,-0.0996,-0.0996,-0.0996,-0.0977,-0.0976,-0.0944,-0.0982,-0.0988,-0.0986,-0.0988,-0.0963,-0.096,-0.0952,-0.0909,-0.0907,-0.0946,-0.0944,-0.0943,-0.0943,0,0,0,0,0,0,0,-0.1034,-0.1029,-0.0979,-0.0995,-0.0996,-0.1,-0.0998,-0.097,-0.0968,-0.0988,-0.0989,-0.0986,-0.0963,-0.0954,-0.0951,-0.0907,-0.0946,-0.0944,-0.0942,-0.0941,-0.0825,-0.0823,0,0,0,0,0,0,-0.1035,-0.103,-0.0979,-0.0978,-0.1018,-0.0998,-0.0995,-0.0982,-0.0968,-0.0967,-0.0985,-0.0987,-0.0958,-0.0954,-0.095,-0.0897,-0.0943,-0.0941,-0.0939,-0.0826,-0.0824,-0.0823,0,0,0,0,0,0,-0.1037,-0.1031,-0.0981,-0.1004,-0.0998,-0.0995,-0.098,-0.0981,-0.0972,-0.0966,-0.0965,-0.0976,-0.0958,-0.0954,-0.0919,-0.0896,-0.094,-0.0938,-0.0828,-0.0826,-0.0823,-0.0791,0,0,0,0,0,0,-0.1039,-0.1031,-0.1015,-0.1004,-0.0997,-0.0951,-0.0979,-0.0979,-0.0967,-0.097,-0.0957,-0.0957,-0.0959,-0.0923,-0.0917,-0.0894,-0.0936,-0.083,-0.0827,-0.0824,-0.0794,-0.0788,-0.0783,0,0,0,0,0,-0.1041,-0.1008,-0.1014,-0.1008,-0.0977,-0.0949,-0.0945,-0.0949,-0.0966,-0.0949,-0.0945,-0.0957,-0.09,-0.0919,-0.0913,-0.0889,-0.0832,-0.0828,-0.0824,-0.0797,-0.0789,-0.0783,0,0,0,0,0,0,-0.1017,-0.1006,-0.1014,-0.0976,-0.0963,-0.0953,-0.0933,-0.0941,-0.0924,-0.0927,-0.0933,-0.0929,-0.0893,-0.0887,-0.0909,-0.0845,-0.0868,-0.0863,-0.085,-0.0842,-0.0837,-0.0839,-0.0934,0,0,0,0,0,-0.1007,-0.0985,-0.0977,-0.0945,-0.0938,-0.0936,-0.0924,-0.0928,-0.0915,-0.091,-0.0904,-0.0891,-0.0869,-0.0856,-0.0836,-0.0793,-0.079,-0.0773,-0.0768,-0.0763,-0.0758,-0.0733,-0.0725,-0.0811,-0.0811,-0.0811,0,0,-0.0986,-0.0978,-0.0964,-0.0939,-0.093,-0.0907,-0.0932,-0.0907,-0.089,-0.0907,-0.0873,-0.0868,-0.0853,-0.0814,-0.0797,-0.0808,-0.0734,-0.0758,-0.0754,-0.0752,-0.0729,-0.0721,-0.0714,-0.0808,-0.0809,-0.0809,0,0,-0.0937,-0.0929,-0.09,-0.089,-0.0875,-0.0874,-0.0867,-0.0855,-0.0852,-0.0819,-0.083,-0.0809,-0.0774,-0.0762,-0.0752,-0.0695,-0.0705,-0.0689,-0.0658,-0.0634,-0.0627,-0.0621,-0.06,-0.0593,-0.0684,-0.0684,-0.0684,0,-0.0913,-0.088,-0.0884,-0.0857,-0.0845,-0.0859,-0.0829,-0.0819,-0.0799,-0.0789,-0.0803,-0.0756,-0.0748,-0.0705,-0.0691,-0.0683,-0.0674,-0.0691,-0.0628,-0.0622,-0.0617,-0.0596,-0.0588,-0.0682,-0.0682,-0.0683,-0.0683,0,-0.085,-0.0827,-0.0805,-0.0784,-0.077,-0.0742,-0.0741,-0.0725,-0.073,-0.0726,-0.0691,-0.0681,-0.0659,-0.0649,-0.0654,-0.0606,-0.0614,-0.0627,-0.0651,-0.0606,-0.0587,-0.058,-0.0679,-0.068,-0.0681,-0.0681,0,0,-0.0786,-0.0767,-0.0759,-0.0749,-0.0733,-0.0714,-0.0686,-0.0664,-0.065,-0.0635,-0.061,-0.0578,-0.059,-0.0578,-0.0581,-0.056,-0.0514,-0.0576,-0.0575,-0.0564,-0.046,-0.0449,-0.044,-0.052,-0.0519,-0.0518,-0.0461,0,-0.0735,-0.0686,-0.0688,-0.0642,-0.0619,-0.0631,-0.0606,-0.0593,-0.0588,-0.0568,-0.0563,-0.054,-0.0558,-0.055,-0.053,-0.0524,-0.0493,-0.0528,-0.0497,-0.0496,-0.05,-0.0431,-0.042,-0.0367,-0.0453,-0.0452,-0.0451,0,-0.067,-0.0652,-0.0603,-0.0589,-0.0579,-0.0557,-0.0536,-0.0516,-0.0501,-0.0499,-0.0484,-0.049,-0.046,-0.0484,-0.0442,-0.0466,-0.0453,-0.0448,-0.0446,-0.0443,-0.0471,-0.0425,-0.035,-0.0342,-0.044,-0.0441,-0.0442,0,-0.0627,-0.059,-0.0556,-0.0547,-0.053,-0.0514,-0.0505,-0.0491,-0.0477,-0.0458,-0.0449,-0.0427,-0.0415,-0.0397,-0.0396,-0.0414,-0.0353,-0.0378,-0.035,-0.035,-0.0337,-0.0338,-0.0258,-0.0329,-0.0329,-0.0329,-0.033,0,-0.057,-0.0539,-0.0536,-0.0515,-0.0481,-0.0483,-0.0448,-0.0442,-0.0428,-0.0405,-0.0414,-0.0392,-0.0392,-0.037,-0.0369,-0.0333,-0.0328,-0.0325,-0.0325,-0.0324,-0.0324,-0.0315,-0.0319,-0.0327,-0.0328,-0.0328,-0.0328,0,-0.0516,-0.0513,-0.0476,-0.0462,-0.0457,-0.0433,-0.042,-0.0399,-0.0395,-0.0366,-0.0359,-0.0352,-0.0326,-0.0323,-0.0292,-0.0291,-0.0248,-0.0252,-0.0253,-0.0254,-0.0226,-0.0228,-0.0137,-0.0125,-0.0205,-0.0204,-0.0203,0,-0.048,-0.0456,-0.0439,-0.0424,-0.0415,-0.0391,-0.0376,-0.0376,-0.0361,-0.034,-0.0321,-0.0295,-0.0275,-0.0232,-0.0224,-0.02,-0.0203,-0.0173,-0.02,-0.0199,-0.0202,-0.0203,-0.02,-0.0168,-0.0167,-0.0166,-0.0166,0,-0.0415,-0.0414,-0.0393,-0.037,-0.0352,-0.0334,-0.0317,-0.0304,-0.0302,-0.0284,-0.0257,-0.024,-0.0208,-0.0182,-0.0158,-0.0149,-0.0156,-0.0157,-0.0149,-0.0148,-0.0149,-0.0147,-0.0238,-0.0159,-0.016,-0.016,-0.0161,-0.0161,-0.0368,-0.0347,-0.0331,-0.0307,-0.0294,-0.0277,-0.0257,-0.0249,-0.0227,-0.0201,-0.0202,-0.0171,-0.0154,-0.0123,-0.0112,-0.0087,-0.0097,-0.0086,-0.0083,-0.008,-0.0077,-0.0153,-0.0083,-0.0083,-0.0083,-0.0083,-0.0084,0,-0.0303,-0.0293,-0.027,-0.0246,-0.0226,-0.0234,-0.0216,-0.0198,-0.0171,-0.0155,-0.0134,-0.0102,-0.0076,-0.0065,-0.0039,-0.0022,-0.0024,-0.0015,-0.0016,-0.0013,-0.007,-0.0079,-0.0013,-0.0013,-0.0013,-0.0013,-0.0013,-0.0013,-0.0267,-0.0232,-0.0228,-0.0186,-0.0176,-0.0146,-0.0134,-0.0119,-0.0105,-0.0069,-0.0047,-0.004,-0.0026,0.0001,0.0025,0.0028,0.0038,0.0049,0.0051,-0.0002,-0.001,-0.0016,-0.0025,0.0052,0.0052,0.0105,0.0106,0.0106]}]]